Location: Godiavel Galaoual
(15.2485°N, 12.6604°W)
Time: 07:58:04
(UTC+00:00)

Ariane Rocket - Pass Details

Date: 27 February 2020
Orbit: 759 x 771 km, 98.7° (Epoch: 06 April)

Event Time Altitude Azimuth Distance (km) Brightness Sun altitude
Rises 20:56:37 0° 181° (S) 3,226 6.3 -29.4°
Reaches altitude 10° 20:59:00 10° 188° (S) 2,302 5.5 -30.0°
Maximum altitude 21:03:49 43° 259° (W) 1,068 4.0 -31.1°
Drops below altitude 10° 21:08:38 10° 330° (NNW) 2,308 5.8 -32.3°
Sets 21:11:03 0° 337° (NNW) 3,236 6.5 -32.9°
